sat.trackr.live / text

‹ back to catalog

COSMOS 2554

NORAD 52202 · 2022-036A

PAYLOAD ACTIVE UNKNOWN

§ Identity

Operator
Country
CIS
Launch date
2022-04-07
Launch site
PLMSC
Launch vehicle
Mass (kg)
RCS (m²)

External: N2YO · Heavens-Above · Gunter

§ Orbital elements

Epoch: 2026-09-20T22:36:01.628928Z

Period
103.10 min
Inclination
67.1511°
Eccentricity
0.0004991
Mean motion
13.96674185 rev/d
Perigee alt
901.7 km
Apogee alt
909.0 km
Semi-major
7,283.5 km
B*
8.1427e-6
RAAN
355.9647°
Arg perigee
275.5012°
Mean anomaly
84.5504°
Rev number
22,732

§ Raw data

COSMOS 25541 52202U 22036A   26263.94168552 -.00000064  00000+0  81427-5 0  99902 52202  67.1511 355.9647 0004991 275.5012  84.5504 13.96674185227320

JSON: /api/v1/satellites/52202 · /tle

For live sub-satellite position, see the globe view (requires WebGL).

§ Visibility from observer

Set your observer location to see the next 7 days of passes ≥ 10°. The values pass through the URL so the page stays shareable.

No JS? Fill the form by hand. The geolocation button needs JavaScript.